Stations météo

réclame
Mon MeteoGroup
Koksijde, Belgique (6400): Température de l'air & dewpoint: 18.11.2017 15:00:00 - 24.11.2017 15:00:00 (CET)Koksijde, Belgique (6400): Vitesse du vent & gusts: 18.11.2017 15:00:00 - 24.11.2017 15:00:00 (CET)Koksijde, Belgique (6400): Direction du vent: 18.11.2017 15:00:00 - 24.11.2017 15:00:00 (CET)Koksijde, Belgique (6400): reduced air pressure: 18.11.2017 15:00:00 - 24.11.2017 15:00:00 (CET)Koksijde, Belgique (6400): visibility: 18.11.2017 15:00:00 - 24.11.2017 15:00:00 (CET)
Date & Time tt [°C] td [°C] ff [km/h] ff [knt] fx [km/h] fx [knt] dd ppp [hPa] vv [km]
24.11.2017 15:00:00 8,6 5,9 7 4 14 8 NW 1011,7 20
24.11.2017 14:00:00 9,1 5,4 7 4 14 8 WNW 1011,7 20
24.11.2017 13:00:00 9,8 7,1 11 6 - - WNW 1011,7 20
24.11.2017 12:00:00 9,5 7,7 11 6 14 8 SW 1011,5 20
24.11.2017 11:00:00 8,3 7,5 11 6 18 10 SW 1010,8 20
24.11.2017 10:00:00 7,0 6,9 9 5 - - SW 1010,3 10
24.11.2017 09:00:00 6,3 6,3 11 6 14 8 SW 1009,7 9
24.11.2017 08:00:00 6,5 6,4 8 4 11 6 SW 1008,7 10
24.11.2017 07:00:00 6,7 6,4 5 3 - - W 1008,0 10
24.11.2017 06:00:00 6,8 6,7 5 3 7 4 W 1007,2 10
24.11.2017 05:00:00 6,8 6,7 2 1 7 4 - 1006,8 10
24.11.2017 04:00:00 7,0 7,0 2 1 - - - 1007,0 10
24.11.2017 03:00:00 7,4 6,7 11 6 29 16 NW 1007,3 10
24.11.2017 02:00:00 7,8 7,8 21 11 14 8 W 1007,6 10
24.11.2017 01:00:00 7,9 7,5 9 5 - - SW 1007,7 7
24.11.2017 00:00:00 7,9 7,2 13 7 22 12 S 1008,1 10
23.11.2017 23:00:00 7,8 6,4 13 7 22 12 S 1008,3 10
23.11.2017 22:00:00 7,4 5,9 13 7 - - SW 1008,3 6
23.11.2017 21:00:00 7,0 5,3 9 5 14 8 SSW 1008,3 10
23.11.2017 20:00:00 7,8 5,2 9 5 18 10 WSW 1007,7 10
23.11.2017 19:00:00 7,6 5,8 13 7 - - SSW 1007,2 10
23.11.2017 18:00:00 7,9 5,7 11 6 22 12 SW 1006,5 10
23.11.2017 17:00:00 8,8 5,9 16 9 29 16 WSW 1005,8 10
23.11.2017 16:00:00 10,2 6,0 22 12 - - WSW 1005,0 10
23.11.2017 15:00:00 11,3 6,2 28 15 43 23 WSW 1004,1 10
23.11.2017 14:00:00 11,1 6,7 28 15 54 29 W 1003,2 10
23.11.2017 13:00:00 12,1 8,0 28 15 - - W 1001,7 10
23.11.2017 12:00:00 12,9 11,4 39 21 50 27 WSW 1000,2 10
23.11.2017 11:00:00 12,9 12,1 35 19 54 29 SW 998,7 10
23.11.2017 10:00:00 13,3 11,9 37 20 - - SW 997,5 10
23.11.2017 09:00:00 12,8 11,6 39 21 54 29 SW 996,1 2,0
23.11.2017 08:00:00 11,8 10,4 39 21 72 39 SSW 994,4 5
23.11.2017 07:00:00 12,9 8,1 34 18 - - SSW 993,5 10
23.11.2017 06:00:00 11,2 6,5 37 20 54 29 S 992,9 10
23.11.2017 05:00:00 11,3 6,1 41 22 54 29 S 993,2 10
23.11.2017 04:00:00 11,8 5,7 37 20 - - S 994,3 10
23.11.2017 03:00:00 11,7 5,7 35 19 54 29 S 995,3 10
23.11.2017 02:00:00 11,4 5,9 37 20 54 29 S 995,9 10
23.11.2017 01:00:00 11,5 6,2 34 18 - - S 996,2 10
23.11.2017 00:00:00 11,5 5,9 35 19 50 27 S 996,9 10
22.11.2017 23:00:00 11,1 5,6 34 18 47 25 S 997,8 10
22.11.2017 22:00:00 10,7 5,4 31 17 - - S 998,1 10
22.11.2017 21:00:00 10,3 5,6 31 17 47 25 S 998,5 10
22.11.2017 20:00:00 10,3 5,8 35 19 50 27 S 999,3 10
22.11.2017 19:00:00 10,3 6,1 29 16 - - S 999,8 10
22.11.2017 18:00:00 10,8 6,6 28 15 43 23 S 1001,0 10
22.11.2017 17:00:00 11,5 7,1 29 16 43 23 S 1001,6 10
22.11.2017 16:00:00 12,6 7,5 26 14 - - S 1001,8 10
22.11.2017 15:00:00 13,6 7,9 28 15 40 21 SSW 1002,7 10
22.11.2017 14:00:00 13,6 8,6 22 12 32 18 SSW 1003,6 10
22.11.2017 13:00:00 12,6 9,2 22 12 - - S 1004,6 10
22.11.2017 12:00:00 12,6 8,9 29 16 40 21 SSW 1005,1 10
22.11.2017 11:00:00 11,8 9,1 22 12 40 21 S 1005,6 10
22.11.2017 10:00:00 10,3 8,8 24 13 - - S 1005,8 10
22.11.2017 09:00:00 10,5 9,0 24 13 36 19 S 1006,2 10
22.11.2017 08:00:00 10,9 9,1 24 13 36 19 SSW 1006,2 10
22.11.2017 07:00:00 11,0 9,1 21 11 - - SSW 1006,0 10
22.11.2017 06:00:00 11,1 9,1 24 13 40 21 SSW 1006,2 10
22.11.2017 05:00:00 11,5 9,2 21 11 32 18 SSW 1006,6 10
22.11.2017 04:00:00 11,2 9,1 26 14 - - SSW 1007,0 10
22.11.2017 03:00:00 11,3 9,3 24 13 36 19 SSW 1007,3 10
22.11.2017 02:00:00 11,6 9,4 28 15 36 19 SSW 1007,7 10
22.11.2017 01:00:00 11,7 9,3 26 14 - - SW 1008,2 10
22.11.2017 00:00:00 11,7 9,5 24 13 32 18 SSW 1008,6 10
21.11.2017 23:00:00 11,5 9,5 26 14 36 19 SSW 1008,8 10
21.11.2017 22:00:00 11,4 9,6 26 14 - - SSW 1009,3 10
21.11.2017 21:00:00 11,5 9,7 29 16 40 21 SSW 1009,8 10
21.11.2017 20:00:00 11,1 9,9 21 11 32 18 SW 1010,2 10
21.11.2017 19:00:00 11,1 10,2 16 9 - - SSW 1010,5 10
21.11.2017 18:00:00 11,3 10,1 26 14 32 18 SW 1010,7 10
21.11.2017 17:00:00 11,6 10,2 18 10 25 14 SSW 1011,0 10
21.11.2017 16:00:00 11,9 10,6 22 12 - - SW 1011,5 10
21.11.2017 15:00:00 12,1 10,8 21 11 32 18 SW 1011,7 10
21.11.2017 14:00:00 12,1 10,7 24 13 36 19 SW 1012,2 10
21.11.2017 13:00:00 12,1 11,0 26 14 - - SW 1012,7 10
21.11.2017 12:00:00 12,3 11,1 22 12 32 18 SW 1013,1 10
21.11.2017 11:00:00 12,5 11,5 21 11 36 19 SW 1013,2 10
21.11.2017 10:00:00 12,3 11,4 26 14 - - WSW 1013,2 10
21.11.2017 09:00:00 12,3 11,4 26 14 43 23 WSW 1013,1 10
21.11.2017 08:00:00 12,5 11,5 28 15 40 21 WSW 1012,7 10
21.11.2017 07:00:00 12,0 11,9 26 14 - - WSW 1012,6 2,1
21.11.2017 06:00:00 12,0 11,9 26 14 36 19 WSW 1012,7 2,4
21.11.2017 05:00:00 12,0 11,9 21 11 40 21 W 1013,0 2,3
21.11.2017 04:00:00 12,3 11,7 28 15 - - W 1013,2 10
21.11.2017 03:00:00 11,8 11,8 29 16 43 23 W 1013,3 2,1
21.11.2017 02:00:00 12,1 11,8 31 17 47 25 W 1013,3 3,6
21.11.2017 01:00:00 12,5 11,6 34 18 - - W 1013,6 10
21.11.2017 00:00:00 12,3 11,6 31 17 47 25 W 1013,5 10
20.11.2017 23:00:00 12,3 11,8 35 19 50 27 W 1013,3 4,4
20.11.2017 22:00:00 12,6 11,5 39 21 - - W 1013,5 3,6
20.11.2017 21:00:00 11,9 11,7 31 17 54 29 W 1013,6 10
20.11.2017 20:00:00 12,1 11,7 39 21 54 29 W 1013,2 10
20.11.2017 19:00:00 12,1 11,8 39 21 - - W 1013,2 10
20.11.2017 18:00:00 12,1 11,5 41 22 54 29 W 1013,2 10
20.11.2017 17:00:00 11,6 11,6 29 16 58 31 W 1013,5 3,2
20.11.2017 16:00:00 12,4 10,7 31 17 - - WSW 1013,6 10
20.11.2017 15:00:00 12,3 10,2 37 20 50 27 W 1014,0 10
20.11.2017 14:00:00 11,7 10,3 31 17 43 23 WSW 1014,7 10
20.11.2017 13:00:00 9,3 9,3 21 11 - - SSW 1015,7 5
20.11.2017 12:00:00 8,1 8,1 21 11 32 18 SW 1016,7 4,5
20.11.2017 11:00:00 7,1 7,1 24 13 32 18 SW 1017,2 3,3
20.11.2017 10:00:00 6,4 6,2 21 11 - - SSW 1017,7 5
20.11.2017 09:00:00 5,0 4,9 15 8 22 12 SSW 1018,5 3,3
20.11.2017 08:00:00 4,7 3,8 13 7 22 12 S 1019,3 10
20.11.2017 07:00:00 4,1 3,2 8 4 - - S 1020,1 10
20.11.2017 06:00:00 3,9 2,9 9 5 14 8 SSW 1020,7 10
20.11.2017 05:00:00 3,7 2,7 9 5 14 8 SSW 1021,1 10
20.11.2017 04:00:00 3,5 2,6 9 5 - - SSW 1021,7 10
20.11.2017 03:00:00 3,2 2,6 5 3 11 6 SW 1022,2 10
20.11.2017 02:00:00 2,7 2,2 8 4 11 6 SW 1022,7 10
20.11.2017 01:00:00 2,5 2,1 8 4 - - SSW 1023,7 10
20.11.2017 00:00:00 3,5 2,4 9 5 14 8 WSW 1024,0 10
19.11.2017 23:00:00 3,2 1,8 13 7 14 8 SW 1024,2 10
19.11.2017 22:00:00 3,7 2,5 11 6 - - SW 1024,2 10
19.11.2017 21:00:00 3,5 2,9 9 5 14 8 SW 1024,0 10
19.11.2017 20:00:00 6,2 1,9 11 6 22 12 W 1023,7 10
19.11.2017 19:00:00 6,7 2,1 15 8 - - WNW 1023,7 10
19.11.2017 18:00:00 6,4 1,5 11 6 18 10 WNW 1023,5 10
19.11.2017 17:00:00 6,8 2,5 13 7 22 12 WNW 1023,2 10
19.11.2017 16:00:00 7,3 3,0 13 7 - - WNW 1023,2 10
19.11.2017 15:00:00 7,6 2,9 15 8 25 14 WNW 1023,2 10
19.11.2017 14:00:00 8,5 3,2 13 7 25 14 NW 1023,1 10
19.11.2017 13:00:00 8,0 4,3 16 9 - - WNW 1022,8 10
19.11.2017 12:00:00 7,8 3,5 16 9 29 16 NW 1022,7 10
19.11.2017 11:00:00 7,9 3,3 18 10 29 16 NW 1022,5 10
19.11.2017 10:00:00 7,2 3,2 18 10 - - NW 1021,8 10
19.11.2017 09:00:00 6,1 1,8 18 10 32 18 NW 1021,5 10
19.11.2017 08:00:00 6,2 1,5 21 11 36 19 NW 1020,7 10
19.11.2017 07:00:00 6,3 0,9 22 12 - - NW 1020,2 10
19.11.2017 06:00:00 6,4 0,7 24 13 36 19 NW 1020,1 10
19.11.2017 05:00:00 6,9 1,6 22 12 40 21 NW 1019,7 10
19.11.2017 04:00:00 7,2 0,8 26 14 - - NW 1019,6 10
19.11.2017 03:00:00 7,8 0,6 24 13 36 19 NNW 1019,5 10
19.11.2017 02:00:00 8,3 2,7 24 13 40 21 NNW 1019,2 10
19.11.2017 01:00:00 8,8 3,2 22 12 - - NNW 1019,1 10
19.11.2017 00:00:00 8,3 3,2 21 11 40 21 NNW 1019,1 10
18.11.2017 23:00:00 8,8 5,4 26 14 40 21 NW 1019,2 10
18.11.2017 22:00:00 9,0 5,2 21 11 - - NW 1019,0 10
18.11.2017 21:00:00 9,1 5,8 22 12 29 16 NW 1019,0 10
18.11.2017 20:00:00 9,1 6,1 18 10 32 18 WNW 1019,2 10
18.11.2017 19:00:00 8,8 6,1 16 9 - - W 1019,5 10
18.11.2017 18:00:00 8,9 6,1 16 9 25 14 WNW 1020,0 10
18.11.2017 17:00:00 8,6 7,1 18 10 29 16 W 1020,0 10
18.11.2017 16:00:00 7,9 7,9 13 7 - - W 1020,7 1,9
18.11.2017 15:00:00 9,1 6,8 29 16 43 23 W 1021,1 10

tt = Température de l'air
td = dewpoint
ff = Vitesse du vent
fx = gusts
dd = Direction du vent
ppp = reduced air pressure
vv = visibility

stations d'obs. à proximité